Time,TemperatureF,DewpointF,PressureIn,WindDirection,WindDirectionDegrees,WindSpeedMPH,WindSpeedGustMPH,Humidity,HourlyPrecipIn,Conditions,Clouds,dailyrainin,SoftwareType,DateUTC
2013-05-09 00:03:00,61.4,22.2,29.91,SW,236,0.0,2.0,22,0.00,,,0.00,WeatherTracker,2013-05-09 06:03:00,
2013-05-09 00:08:00,61.1,22.0,29.91,West,267,0.0,2.0,22,0.00,,,0.00,WeatherTracker,2013-05-09 06:08:00,
2013-05-09 00:13:00,60.8,21.7,29.91,WSW,239,0.0,2.0,22,0.00,,,0.00,WeatherTracker,2013-05-09 06:13:00,
2013-05-09 00:18:00,60.4,22.4,29.91,WSW,238,0.0,2.0,23,0.00,,,0.00,WeatherTracker,2013-05-09 06:18:00,
2013-05-09 00:23:00,60.0,22.1,29.91,West,259,0.0,4.0,23,0.00,,,0.00,WeatherTracker,2013-05-09 06:23:00,
2013-05-09 00:28:00,59.6,21.8,29.91,WSW,254,4.0,4.0,23,0.00,,,0.00,WeatherTracker,2013-05-09 06:28:00,
2013-05-09 00:33:00,59.4,22.6,29.91,WSW,249,0.0,4.0,24,0.00,,,0.00,WeatherTracker,2013-05-09 06:33:00,
2013-05-09 00:38:00,59.1,22.4,29.91,WSW,243,0.0,4.0,24,0.00,,,0.00,WeatherTracker,2013-05-09 06:38:00,
2013-05-09 00:43:00,58.8,23.1,29.92,WSW,249,0.0,3.0,25,0.00,,,0.00,WeatherTracker,2013-05-09 06:43:00,
2013-05-09 00:48:00,58.6,22.9,29.92,WSW,250,0.0,3.0,25,0.00,,,0.00,WeatherTracker,2013-05-09 06:48:00,
2013-05-09 00:53:00,58.4,22.7,29.92,WSW,248,0.0,2.0,25,0.00,,,0.00,WeatherTracker,2013-05-09 06:53:00,
2013-05-09 00:58:00,58.2,22.6,29.92,WSW,248,0.0,2.0,25,0.00,,,0.00,WeatherTracker,2013-05-09 06:58:00,
2013-05-09 01:03:00,58.0,23.3,29.92,WSW,255,0.0,2.0,26,0.00,,,0.00,WeatherTracker,2013-05-09 07:03:00,
2013-05-09 01:08:00,57.8,23.1,29.92,WSW,253,0.0,2.0,26,0.00,,,0.00,WeatherTracker,2013-05-09 07:08:00,
2013-05-09 01:13:00,57.6,23.0,29.92,WSW,253,1.0,2.0,26,0.00,,,0.00,WeatherTracker,2013-05-09 07:13:00,
2013-05-09 01:18:00,57.3,23.6,29.92,WSW,253,0.0,2.0,27,0.00,,,0.00,WeatherTracker,2013-05-09 07:18:00,
2013-05-09 01:23:00,57.2,23.5,29.92,WSW,253,0.0,2.0,27,0.00,,,0.00,WeatherTracker,2013-05-09 07:23:00,
2013-05-09 01:28:00,56.7,24.0,29.92,WSW,253,0.0,1.0,28,0.00,,,0.00,WeatherTracker,2013-05-09 07:28:00,
2013-05-09 01:33:00,56.5,23.8,29.92,WSW,253,0.0,0.0,28,0.00,,,0.00,WeatherTracker,2013-05-09 07:33:00,
2013-05-09 01:38:00,56.2,23.5,29.92,WSW,253,0.0,0.0,28,0.00,,,0.00,WeatherTracker,2013-05-09 07:38:00,
2013-05-09 01:43:00,56.1,23.5,29.92,WSW,253,0.0,0.0,28,0.00,,,0.00,WeatherTracker,2013-05-09 07:43:00,
2013-05-09 01:48:00,55.9,24.1,29.92,WSW,253,0.0,0.0,29,0.00,,,0.00,WeatherTracker,2013-05-09 07:48:00,
2013-05-09 01:53:00,55.7,23.9,29.92,WSW,253,0.0,0.0,29,0.00,,,0.00,WeatherTracker,2013-05-09 07:53:00,
2013-05-09 01:58:00,55.5,23.8,29.92,WSW,253,0.0,0.0,29,0.00,,,0.00,WeatherTracker,2013-05-09 07:58:00,
2013-05-09 02:03:00,55.3,24.4,29.92,WSW,253,0.0,0.0,30,0.00,,,0.00,WeatherTracker,2013-05-09 08:03:00,
2013-05-09 02:09:00,55.3,24.4,29.92,WSW,253,0.0,0.0,30,0.00,,,0.00,WeatherTracker,2013-05-09 08:09:00,
2013-05-09 02:14:00,55.3,24.4,29.92,WSW,253,1.0,2.0,30,0.00,,,0.00,WeatherTracker,2013-05-09 08:14:00,
2013-05-09 02:19:00,55.4,24.5,29.92,SW,225,0.0,2.0,30,0.00,,,0.00,WeatherTracker,2013-05-09 08:19:00,
2013-05-09 02:24:00,55.5,25.4,29.92,SW,225,0.0,1.0,31,0.00,,,0.00,WeatherTracker,2013-05-09 08:24:00,
2013-05-09 02:29:00,55.1,25.0,29.92,SW,225,0.0,1.0,31,0.00,,,0.00,WeatherTracker,2013-05-09 08:29:00,
2013-05-09 02:34:00,54.8,25.5,29.92,WSW,248,0.0,3.0,32,0.00,,,0.00,WeatherTracker,2013-05-09 08:34:00,
2013-05-09 02:39:00,54.7,25.4,29.92,WSW,248,0.0,3.0,32,0.00,,,0.00,WeatherTracker,2013-05-09 08:39:00,
2013-05-09 02:44:00,54.2,25.7,29.92,WSW,248,0.0,2.0,33,0.00,,,0.00,WeatherTracker,2013-05-09 08:44:00,
2013-05-09 02:49:00,53.9,26.2,29.92,WSW,248,0.0,1.0,34,0.00,,,0.00,WeatherTracker,2013-05-09 08:49:00,
2013-05-09 02:54:00,53.7,25.3,29.92,WSW,248,0.0,0.0,33,0.00,,,0.00,WeatherTracker,2013-05-09 08:54:00,
2013-05-09 02:59:00,53.6,25.2,29.92,WSW,248,0.0,0.0,33,0.00,,,0.00,WeatherTracker,2013-05-09 08:59:00,
2013-05-09 03:04:00,53.6,25.2,29.92,WSW,248,0.0,0.0,33,0.00,,,0.00,WeatherTracker,2013-05-09 09:04:00,
2013-05-09 03:09:00,53.6,25.2,29.92,WSW,248,0.0,0.0,33,0.00,,,0.00,WeatherTracker,2013-05-09 09:09:00,
2013-05-09 03:14:00,53.4,25.7,29.92,WSW,248,0.0,0.0,34,0.00,,,0.00,WeatherTracker,2013-05-09 09:14:00,
2013-05-09 03:19:00,53.1,25.5,29.92,WSW,248,0.0,0.0,34,0.00,,,0.00,WeatherTracker,2013-05-09 09:19:00,
2013-05-09 03:24:00,52.9,25.3,29.92,WSW,248,0.0,0.0,34,0.00,,,0.00,WeatherTracker,2013-05-09 09:24:00,
2013-05-09 03:29:00,52.9,25.3,29.92,WSW,248,0.0,0.0,34,0.00,,,0.00,WeatherTracker,2013-05-09 09:29:00,
2013-05-09 03:34:00,52.8,25.2,29.92,WSW,248,0.0,0.0,34,0.00,,,0.00,WeatherTracker,2013-05-09 09:34:00,
2013-05-09 03:39:00,52.7,25.1,29.92,WSW,248,0.0,0.0,34,0.00,,,0.00,WeatherTracker,2013-05-09 09:39:00,
2013-05-09 03:44:00,52.3,25.5,29.92,WSW,248,0.0,0.0,35,0.00,,,0.00,WeatherTracker,2013-05-09 09:44:00,
2013-05-09 03:49:00,51.8,25.0,29.92,WSW,248,0.0,0.0,35,0.00,,,0.00,WeatherTracker,2013-05-09 09:49:00,
2013-05-09 03:54:00,51.4,25.4,29.92,WSW,248,0.0,0.0,36,0.00,,,0.00,WeatherTracker,2013-05-09 09:54:00,
2013-05-09 03:59:00,51.5,25.4,29.92,WSW,248,0.0,0.0,36,0.00,,,0.00,WeatherTracker,2013-05-09 09:59:00,
2013-05-09 04:04:00,51.4,25.4,29.92,WSW,248,0.0,0.0,36,0.00,,,0.00,WeatherTracker,2013-05-09 10:04:00,
2013-05-09 04:09:00,51.2,25.8,29.92,WSW,248,0.0,0.0,37,0.00,,,0.00,WeatherTracker,2013-05-09 10:09:00,
2013-05-09 04:14:00,51.3,25.9,29.92,WSW,248,0.0,0.0,37,0.00,,,0.00,WeatherTracker,2013-05-09 10:14:00,
2013-05-09 04:19:00,51.2,25.2,29.92,WSW,248,0.0,0.0,36,0.00,,,0.00,WeatherTracker,2013-05-09 10:19:00,
2013-05-09 04:24:00,51.1,25.7,29.92,WSW,248,0.0,0.0,37,0.00,,,0.00,WeatherTracker,2013-05-09 10:24:00,
2013-05-09 04:29:00,51.2,25.8,29.93,WSW,248,0.0,0.0,37,0.00,,,0.00,WeatherTracker,2013-05-09 10:29:00,
2013-05-09 04:34:00,50.9,25.6,29.93,WSW,248,0.0,0.0,37,0.00,,,0.00,WeatherTracker,2013-05-09 10:34:00,
2013-05-09 04:39:00,50.5,25.9,29.93,WSW,248,0.0,0.0,38,0.00,,,0.00,WeatherTracker,2013-05-09 10:39:00,
2013-05-09 04:44:00,50.1,26.1,29.93,WSW,248,0.0,0.0,39,0.00,,,0.00,WeatherTracker,2013-05-09 10:44:00,
2013-05-09 04:50:00,49.9,25.9,29.93,WSW,248,0.0,0.0,39,0.00,,,0.00,WeatherTracker,2013-05-09 10:50:00,
2013-05-09 04:55:00,50.0,26.6,29.93,WSW,248,0.0,0.0,40,0.00,,,0.00,WeatherTracker,2013-05-09 10:55:00,
2013-05-09 05:00:00,50.1,26.1,29.93,WSW,248,0.0,0.0,39,0.00,,,0.00,WeatherTracker,2013-05-09 11:00:00,
2013-05-09 05:05:00,50.6,26.6,29.93,WSW,248,0.0,0.0,39,0.00,,,0.00,WeatherTracker,2013-05-09 11:05:00,
2013-05-09 05:10:00,51.0,26.3,29.93,WSW,248,0.0,0.0,38,0.00,,,0.00,WeatherTracker,2013-05-09 11:10:00,
2013-05-09 05:15:00,51.0,26.3,29.93,WSW,248,0.0,0.0,38,0.00,,,0.00,WeatherTracker,2013-05-09 11:15:00,
2013-05-09 05:20:00,51.0,26.9,29.93,WSW,248,0.0,0.0,39,0.00,,,0.00,WeatherTracker,2013-05-09 11:20:00,
2013-05-09 05:25:00,51.1,26.4,29.93,WSW,248,0.0,1.0,38,0.00,,,0.00,WeatherTracker,2013-05-09 11:25:00,
2013-05-09 05:30:00,50.9,26.2,29.93,WSW,248,0.0,1.0,38,0.00,,,0.00,WeatherTracker,2013-05-09 11:30:00,
2013-05-09 05:35:00,51.2,26.5,29.93,WSW,248,0.0,0.0,38,0.00,,,0.00,WeatherTracker,2013-05-09 11:35:00,
2013-05-09 05:40:00,51.2,26.5,29.93,WSW,248,0.0,0.0,38,0.00,,,0.00,WeatherTracker,2013-05-09 11:40:00,
2013-05-09 05:45:00,50.6,27.2,29.93,WSW,248,0.0,0.0,40,0.00,,,0.00,WeatherTracker,2013-05-09 11:45:00,
2013-05-09 05:50:00,50.4,27.0,29.93,WSW,248,0.0,0.0,40,0.00,,,0.00,WeatherTracker,2013-05-09 11:50:00,
2013-05-09 05:55:00,50.2,27.4,29.93,WSW,248,0.0,0.0,41,0.00,,,0.00,WeatherTracker,2013-05-09 11:55:00,
2013-05-09 06:00:00,50.0,27.2,29.94,WSW,248,0.0,0.0,41,0.00,,,0.00,WeatherTracker,2013-05-09 12:00:00,
2013-05-09 06:05:00,50.0,27.8,29.93,WSW,248,0.0,0.0,42,0.00,,,0.00,WeatherTracker,2013-05-09 12:05:00,
2013-05-09 06:10:00,50.1,27.9,29.94,WSW,248,0.0,0.0,42,0.00,,,0.00,WeatherTracker,2013-05-09 12:10:00,
2013-05-09 06:15:00,50.3,28.1,29.94,WSW,248,0.0,0.0,42,0.00,,,0.00,WeatherTracker,2013-05-09 12:15:00,
2013-05-09 06:20:00,49.9,27.7,29.94,WSW,248,0.0,0.0,42,0.00,,,0.00,WeatherTracker,2013-05-09 12:20:00,
2013-05-09 06:25:00,49.9,28.3,29.95,WSW,248,0.0,0.0,43,0.00,,,0.00,WeatherTracker,2013-05-09 12:25:00,
2013-05-09 06:30:00,50.2,28.0,29.95,WSW,248,0.0,0.0,42,0.00,,,0.00,WeatherTracker,2013-05-09 12:30:00,
2013-05-09 06:35:00,50.6,28.4,29.95,WSW,248,0.0,0.0,42,0.00,,,0.00,WeatherTracker,2013-05-09 12:35:00,
2013-05-09 06:40:00,51.1,27.6,29.95,WSW,248,0.0,1.0,40,0.00,,,0.00,WeatherTracker,2013-05-09 12:40:00,
2013-05-09 06:45:00,51.5,27.4,29.95,WSW,248,0.0,1.0,39,0.00,,,0.00,WeatherTracker,2013-05-09 12:45:00,
2013-05-09 06:50:00,51.7,28.2,29.95,WSW,248,0.0,1.0,40,0.00,,,0.00,WeatherTracker,2013-05-09 12:50:00,
2013-05-09 06:55:00,52.1,27.9,29.95,WSW,247,0.0,0.0,39,0.00,,,0.00,WeatherTracker,2013-05-09 12:55:00,
2013-05-09 07:00:00,52.8,27.9,29.95,WSW,248,0.0,1.0,38,0.00,,,0.00,WeatherTracker,2013-05-09 13:00:00,
2013-05-09 07:06:00,53.7,28.1,29.95,WSW,247,0.0,1.0,37,0.00,,,0.00,WeatherTracker,2013-05-09 13:06:00,
2013-05-09 07:11:00,54.2,27.8,29.96,SSW,197,1.0,1.0,36,0.00,,,0.00,WeatherTracker,2013-05-09 13:11:00,
2013-05-09 07:16:00,54.4,27.3,29.96,SW,220,0.0,3.0,35,0.00,,,0.00,WeatherTracker,2013-05-09 13:16:00,
2013-05-09 07:21:00,55.0,27.2,29.96,SW,220,0.0,3.0,34,0.00,,,0.00,WeatherTracker,2013-05-09 13:21:00,
2013-05-09 07:26:00,55.2,27.3,29.96,SW,219,0.0,2.0,34,0.00,,,0.00,WeatherTracker,2013-05-09 13:26:00,
2013-05-09 07:31:00,55.4,27.5,29.96,SSW,194,0.0,2.0,34,0.00,,,0.00,WeatherTracker,2013-05-09 13:31:00,
2013-05-09 07:36:00,55.6,27.7,29.96,SSW,194,0.0,2.0,34,0.00,,,0.00,WeatherTracker,2013-05-09 13:36:00,
2013-05-09 07:41:00,55.6,27.7,29.96,SSW,194,1.0,2.0,34,0.00,,,0.00,WeatherTracker,2013-05-09 13:41:00,
2013-05-09 07:46:00,55.8,27.1,29.96,SSW,195,0.0,2.0,33,0.00,,,0.00,WeatherTracker,2013-05-09 13:46:00,
2013-05-09 07:51:00,56.1,27.4,29.97,NW,311,2.0,4.0,33,0.00,,,0.00,WeatherTracker,2013-05-09 13:51:00,
2013-05-09 07:56:00,56.5,27.7,29.97,WSW,257,1.0,4.0,33,0.00,,,0.00,WeatherTracker,2013-05-09 13:56:00,
2013-05-09 08:01:00,56.8,27.3,29.97,WSW,257,0.0,2.0,32,0.00,,,0.00,WeatherTracker,2013-05-09 14:01:00,
2013-05-09 08:06:00,57.3,28.4,29.96,SW,231,0.0,3.0,33,0.00,,,0.00,WeatherTracker,2013-05-09 14:06:00,
2013-05-09 08:11:00,57.6,28.0,29.97,SW,229,0.0,3.0,32,0.00,,,0.00,WeatherTracker,2013-05-09 14:11:00,
2013-05-09 08:16:00,57.7,27.3,29.97,SSW,213,0.0,3.0,31,0.00,,,0.00,WeatherTracker,2013-05-09 14:16:00,
2013-05-09 08:21:00,58.2,28.5,29.97,SSW,196,0.0,4.0,32,0.00,,,0.00,WeatherTracker,2013-05-09 14:21:00,
2013-05-09 08:27:00,58.7,28.1,29.97,WSW,252,2.0,4.0,31,0.00,,,0.00,WeatherTracker,2013-05-09 14:27:00,
2013-05-09 08:32:00,58.9,27.5,29.97,SSW,199,0.0,4.0,30,0.00,,,0.00,WeatherTracker,2013-05-09 14:32:00,
2013-05-09 08:37:00,58.7,28.1,29.97,SE,134,0.0,4.0,31,0.00,,,0.00,WeatherTracker,2013-05-09 14:37:00,
2013-05-09 08:42:00,59.3,27.9,29.97,WSW,246,2.0,6.0,30,0.00,,,0.00,WeatherTracker,2013-05-09 14:42:00,
2013-05-09 08:47:00,59.6,28.1,29.97,WNW,284,1.0,6.0,30,0.00,,,0.00,WeatherTracker,2013-05-09 14:47:00,
2013-05-09 08:52:00,59.9,27.6,29.97,SE,136,2.0,5.0,29,0.00,,,0.00,WeatherTracker,2013-05-09 14:52:00,
2013-05-09 08:57:00,59.5,27.2,29.98,ESE,119,0.0,5.0,29,0.00,,,0.00,WeatherTracker,2013-05-09 14:57:00,
2013-05-09 09:02:00,60.5,27.2,29.97,NW,315,0.0,4.0,28,0.00,,,0.00,WeatherTracker,2013-05-09 15:02:00,
2013-05-09 09:07:00,61.1,27.8,29.97,WNW,301,0.0,4.0,28,0.00,,,0.00,WeatherTracker,2013-05-09 15:07:00,
2013-05-09 09:12:00,62.2,27.8,29.97,WNW,298,0.0,2.0,27,0.00,,,0.00,WeatherTracker,2013-05-09 15:12:00,
2013-05-09 09:17:00,62.1,28.6,29.97,ESE,120,1.0,2.0,28,0.00,,,0.00,WeatherTracker,2013-05-09 15:17:00,
2013-05-09 09:22:00,62.3,27.9,29.97,NW,309,1.0,3.0,27,0.00,,,0.00,WeatherTracker,2013-05-09 15:22:00,
2013-05-09 09:27:00,62.8,28.3,29.97,SSE,149,3.0,3.0,27,0.00,,,0.00,WeatherTracker,2013-05-09 15:27:00,
2013-05-09 09:32:00,63.3,27.8,29.97,SE,145,0.0,3.0,26,0.00,,,0.00,WeatherTracker,2013-05-09 15:32:00,
2013-05-09 09:37:00,63.7,28.2,29.97,West,273,1.0,3.0,26,0.00,,,0.00,WeatherTracker,2013-05-09 15:37:00,
2013-05-09 09:42:00,64.0,28.4,29.97,West,267,4.0,4.0,26,0.00,,,0.00,WeatherTracker,2013-05-09 15:42:00,
2013-05-09 09:47:00,63.7,28.2,29.97,SSE,153,0.0,4.0,26,0.00,,,0.00,WeatherTracker,2013-05-09 15:47:00,
2013-05-09 09:52:00,64.2,28.6,29.97,SSW,200,1.0,4.0,26,0.00,,,0.00,WeatherTracker,2013-05-09 15:52:00,
2013-05-09 09:57:00,65.8,29.0,29.97,West,275,1.0,4.0,25,0.00,,,0.00,WeatherTracker,2013-05-09 15:57:00,
2013-05-09 10:02:00,65.6,27.8,29.97,NNW,346,2.0,4.0,24,0.00,,,0.00,WeatherTracker,2013-05-09 16:02:00,
2013-05-09 10:07:00,66.4,29.5,29.97,NNE,27,1.0,4.0,25,0.00,,,0.00,WeatherTracker,2013-05-09 16:07:00,
2013-05-09 10:13:00,66.8,29.8,29.97,SSW,197,1.0,3.0,25,0.00,,,0.00,WeatherTracker,2013-05-09 16:13:00,
2013-05-09 10:18:00,67.2,29.2,29.97,SSW,203,0.0,3.0,24,0.00,,,0.00,WeatherTracker,2013-05-09 16:18:00,
2013-05-09 10:23:00,66.5,28.6,29.97,ENE,61,2.0,4.0,24,0.00,,,0.00,WeatherTracker,2013-05-09 16:23:00,
2013-05-09 10:28:00,67.2,29.2,29.96,SSW,200,2.0,7.0,24,0.00,,,0.00,WeatherTracker,2013-05-09 16:28:00,
2013-05-09 10:33:00,66.8,27.8,29.96,SE,135,0.0,7.0,23,0.00,,,0.00,WeatherTracker,2013-05-09 16:33:00,
2013-05-09 10:38:00,66.6,28.7,29.96,South,186,0.0,5.0,24,0.00,,,0.00,WeatherTracker,2013-05-09 16:38:00,
2013-05-09 10:43:00,67.2,28.1,29.96,SSE,161,3.0,7.0,23,0.00,,,0.00,WeatherTracker,2013-05-09 16:43:00,
2013-05-09 10:48:00,67.7,27.5,29.96,SSE,156,2.0,7.0,22,0.00,,,0.00,WeatherTracker,2013-05-09 16:48:00,
2013-05-09 10:53:00,67.0,26.9,29.96,ESE,105,2.0,7.0,22,0.00,,,0.00,WeatherTracker,2013-05-09 16:53:00,
2013-05-09 10:58:00,66.5,27.6,29.96,ESE,112,0.0,7.0,23,0.00,,,0.00,WeatherTracker,2013-05-09 16:58:00,
2013-05-09 11:03:00,67.4,27.2,29.96,South,169,0.0,3.0,22,0.00,,,0.00,WeatherTracker,2013-05-09 17:03:00,
2013-05-09 11:08:00,67.5,27.3,29.96,SE,140,1.0,4.0,22,0.00,,,0.00,WeatherTracker,2013-05-09 17:08:00,
2013-05-09 11:13:00,68.0,26.6,29.96,SE,140,0.0,4.0,21,0.00,,,0.00,WeatherTracker,2013-05-09 17:13:00,
2013-05-09 11:18:00,67.7,26.4,29.95,SSW,205,2.0,3.0,21,0.00,,,0.00,WeatherTracker,2013-05-09 17:18:00,
2013-05-09 11:23:00,67.0,26.9,29.95,SE,142,1.0,4.0,22,0.00,,,0.00,WeatherTracker,2013-05-09 17:23:00,
2013-05-09 11:28:00,67.1,27.0,29.95,NNW,345,1.0,4.0,22,0.00,,,0.00,WeatherTracker,2013-05-09 17:28:00,
2013-05-09 11:33:00,67.4,27.2,29.95,ESE,122,1.0,4.0,22,0.00,,,0.00,WeatherTracker,2013-05-09 17:33:00,
2013-05-09 11:38:00,68.3,28.0,29.95,WSW,244,3.0,4.0,22,0.00,,,0.00,WeatherTracker,2013-05-09 17:38:00,
2013-05-09 11:43:00,67.3,27.2,29.95,North,349,1.0,4.0,22,0.00,,,0.00,WeatherTracker,2013-05-09 17:43:00,
2013-05-09 11:48:00,68.9,27.4,29.95,ENE,57,2.0,3.0,21,0.00,,,0.00,WeatherTracker,2013-05-09 17:48:00,
2013-05-09 11:54:00,68.6,27.1,29.94,ESE,117,1.0,7.0,21,0.00,,,0.00,WeatherTracker,2013-05-09 17:54:00,
2013-05-09 11:59:00,69.1,27.5,29.94,East,91,2.0,8.0,21,0.00,,,0.00,WeatherTracker,2013-05-09 17:59:00,
2013-05-09 12:04:00,68.5,28.2,29.94,ENE,60,2.0,9.0,22,0.00,,,0.00,WeatherTracker,2013-05-09 18:04:00,
2013-05-09 12:09:00,70.1,28.4,29.94,NNW,329,0.0,9.0,21,0.00,,,0.00,WeatherTracker,2013-05-09 18:09:00,
2013-05-09 12:14:00,70.5,27.5,29.94,North,10,2.0,8.0,20,0.00,,,0.00,WeatherTracker,2013-05-09 18:14:00,
2013-05-09 12:19:00,69.8,28.1,29.94,East,92,6.0,8.0,21,0.00,,,0.00,WeatherTracker,2013-05-09 18:19:00,
2013-05-09 12:24:00,70.9,27.8,29.94,East,87,2.0,7.0,20,0.00,,,0.00,WeatherTracker,2013-05-09 18:24:00,
2013-05-09 12:29:00,70.4,27.4,29.93,ESE,103,2.0,9.0,20,0.00,,,0.00,WeatherTracker,2013-05-09 18:29:00,
2013-05-09 12:34:00,70.8,27.7,29.93,East,81,1.0,9.0,20,0.00,,,0.00,WeatherTracker,2013-05-09 18:34:00,
2013-05-09 12:39:00,70.5,27.5,29.93,ENE,71,4.0,7.0,20,0.00,,,0.00,WeatherTracker,2013-05-09 18:39:00,
2013-05-09 12:44:00,72.2,28.9,29.93,North,355,3.0,7.0,20,0.00,,,0.00,WeatherTracker,2013-05-09 18:44:00,
2013-05-09 12:49:00,71.7,27.2,29.93,East,96,3.0,6.0,19,0.00,,,0.00,WeatherTracker,2013-05-09 18:49:00,
2013-05-09 12:54:00,72.8,28.1,29.93,South,184,3.0,10.0,19,0.00,,,0.00,WeatherTracker,2013-05-09 18:54:00,
2013-05-09 12:59:00,71.8,26.0,29.93,SE,143,0.0,10.0,18,0.00,,,0.00,WeatherTracker,2013-05-09 18:59:00,
2013-05-09 13:04:00,70.5,26.3,29.92,East,94,0.0,10.0,19,0.00,,,0.00,WeatherTracker,2013-05-09 19:04:00,
2013-05-09 13:09:00,70.4,26.2,29.92,ESE,110,1.0,6.0,19,0.00,,,0.00,WeatherTracker,2013-05-09 19:09:00,
2013-05-09 13:14:00,72.2,27.6,29.92,WNW,293,2.0,7.0,19,0.00,,,0.00,WeatherTracker,2013-05-09 19:14:00,
2013-05-09 13:19:00,74.2,28.0,29.92,West,275,0.0,7.0,18,0.00,,,0.00,WeatherTracker,2013-05-09 19:19:00,
2013-05-09 13:25:00,73.3,25.9,29.92,SE,143,2.0,6.0,17,0.00,,,0.00,WeatherTracker,2013-05-09 19:25:00,
2013-05-09 13:30:00,72.4,26.5,29.92,South,171,2.0,6.0,18,0.00,,,0.00,WeatherTracker,2013-05-09 19:30:00,
2013-05-09 13:35:00,73.2,27.2,29.92,East,93,3.0,9.0,18,0.00,,,0.00,WeatherTracker,2013-05-09 19:35:00,
2013-05-09 13:40:00,72.3,25.0,29.92,ESE,113,3.0,9.0,17,0.00,,,0.00,WeatherTracker,2013-05-09 19:40:00,
2013-05-09 13:45:00,72.3,26.4,29.91,ESE,109,1.0,8.0,18,0.00,,,0.00,WeatherTracker,2013-05-09 19:45:00,
2013-05-09 13:50:00,73.4,25.9,29.91,ESE,113,1.0,8.0,17,0.00,,,0.00,WeatherTracker,2013-05-09 19:50:00,
2013-05-09 13:55:00,72.3,26.4,29.91,NE,34,1.0,8.0,18,0.00,,,0.00,WeatherTracker,2013-05-09 19:55:00,
2013-05-09 14:00:00,72.5,25.2,29.91,SE,138,3.0,5.0,17,0.00,,,0.00,WeatherTracker,2013-05-09 20:00:00,
2013-05-09 14:05:00,72.9,25.5,29.91,East,101,2.0,5.0,17,0.00,,,0.00,WeatherTracker,2013-05-09 20:05:00,
2013-05-09 14:10:00,74.0,26.4,29.90,South,188,0.0,5.0,17,0.00,,,0.00,WeatherTracker,2013-05-09 20:10:00,
2013-05-09 14:15:00,74.5,25.4,29.90,SE,146,4.0,8.0,16,0.00,,,0.00,WeatherTracker,2013-05-09 20:15:00,
2013-05-09 14:20:00,74.3,25.2,29.90,SE,142,3.0,8.0,16,0.00,,,0.00,WeatherTracker,2013-05-09 20:20:00,
2013-05-09 14:25:00,74.6,25.4,29.90,SW,215,6.0,7.0,16,0.00,,,0.00,WeatherTracker,2013-05-09 20:25:00,
2013-05-09 14:30:00,73.9,24.9,29.90,NE,44,1.0,8.0,16,0.00,,,0.00,WeatherTracker,2013-05-09 20:30:00,
2013-05-09 14:35:00,73.3,24.4,29.89,West,269,1.0,8.0,16,0.00,,,0.00,WeatherTracker,2013-05-09 20:35:00,
2013-05-09 14:40:00,74.3,23.7,29.89,West,269,1.0,5.0,15,0.00,,,0.00,WeatherTracker,2013-05-09 20:40:00,
2013-05-09 14:45:00,74.7,24.0,29.89,ENE,74,2.0,5.0,15,0.00,,,0.00,WeatherTracker,2013-05-09 20:45:00,
2013-05-09 14:50:00,74.5,23.8,29.89,SE,137,2.0,5.0,15,0.00,,,0.00,WeatherTracker,2013-05-09 20:50:00,
2013-05-09 14:55:00,74.1,23.5,29.89,ENE,63,1.0,8.0,15,0.00,,,0.00,WeatherTracker,2013-05-09 20:55:00,
2013-05-09 15:01:00,73.4,24.5,29.89,NNE,22,1.0,8.0,16,0.00,,,0.00,WeatherTracker,2013-05-09 21:01:00,
2013-05-09 15:06:00,73.7,24.7,29.88,ENE,76,5.0,6.0,16,0.00,,,0.00,WeatherTracker,2013-05-09 21:06:00,
2013-05-09 15:11:00,73.8,24.8,29.88,WNW,289,0.0,7.0,16,0.00,,,0.00,WeatherTracker,2013-05-09 21:11:00,
2013-05-09 15:16:00,74.3,23.7,29.88,East,86,1.0,7.0,15,0.00,,,0.00,WeatherTracker,2013-05-09 21:16:00,
2013-05-09 15:21:00,73.1,22.7,29.88,WSW,255,1.0,6.0,15,0.00,,,0.00,WeatherTracker,2013-05-09 21:21:00,
2013-05-09 15:26:00,72.8,24.0,29.88,SSW,198,2.0,4.0,16,0.00,,,0.00,WeatherTracker,2013-05-09 21:26:00,
2013-05-09 15:31:00,73.4,22.9,29.87,South,169,3.0,8.0,15,0.00,,,0.00,WeatherTracker,2013-05-09 21:31:00,
2013-05-09 15:36:00,72.5,23.8,29.87,East,92,5.0,8.0,16,0.00,,,0.00,WeatherTracker,2013-05-09 21:36:00,
2013-05-09 15:41:00,72.7,23.9,29.87,ESE,117,1.0,6.0,16,0.00,,,0.00,WeatherTracker,2013-05-09 21:41:00,
2013-05-09 15:46:00,72.4,23.7,29.87,ESE,109,2.0,7.0,16,0.00,,,0.00,WeatherTracker,2013-05-09 21:46:00,
2013-05-09 15:51:00,73.1,24.2,29.87,ENE,75,3.0,7.0,16,0.00,,,0.00,WeatherTracker,2013-05-09 21:51:00,
2013-05-09 15:56:00,72.6,23.8,29.87,ENE,78,2.0,5.0,16,0.00,,,0.00,WeatherTracker,2013-05-09 21:56:00,
2013-05-09 16:01:00,73.4,24.5,29.87,SSE,165,6.0,8.0,16,0.00,,,0.00,WeatherTracker,2013-05-09 22:01:00,
2013-05-09 16:06:00,72.6,23.8,29.87,ESE,106,3.0,8.0,16,0.00,,,0.00,WeatherTracker,2013-05-09 22:06:00,
2013-05-09 16:11:00,72.8,24.0,29.87,NNW,336,4.0,8.0,16,0.00,,,0.00,WeatherTracker,2013-05-09 22:11:00,
2013-05-09 16:16:00,72.7,23.9,29.87,NNW,334,5.0,11.0,16,0.00,,,0.00,WeatherTracker,2013-05-09 22:16:00,
2013-05-09 16:21:00,72.2,23.5,29.87,SSE,160,3.0,11.0,16,0.00,,,0.00,WeatherTracker,2013-05-09 22:21:00,
2013-05-09 16:26:00,71.7,24.6,29.87,SSE,153,3.0,8.0,17,0.00,,,0.00,WeatherTracker,2013-05-09 22:26:00,
2013-05-09 16:31:00,71.6,24.5,29.87,SSE,151,5.0,9.0,17,0.00,,,0.00,WeatherTracker,2013-05-09 22:31:00,
2013-05-09 16:36:00,71.6,24.5,29.87,SSW,209,0.0,9.0,17,0.00,,,0.00,WeatherTracker,2013-05-09 22:36:00,
2013-05-09 16:41:00,71.6,24.5,29.87,SSE,149,0.0,5.0,17,0.00,,,0.00,WeatherTracker,2013-05-09 22:41:00,
2013-05-09 16:46:00,71.0,24.0,29.87,East,97,3.0,5.0,17,0.00,,,0.00,WeatherTracker,2013-05-09 22:46:00,
2013-05-09 16:51:00,71.5,24.4,29.87,ESE,115,4.0,7.0,17,0.00,,,0.00,WeatherTracker,2013-05-09 22:51:00,
2013-05-09 16:56:00,71.1,24.1,29.88,East,80,1.0,7.0,17,0.00,,,0.00,WeatherTracker,2013-05-09 22:56:00,
2013-05-09 17:01:00,71.0,24.0,29.87,North,360,3.0,7.0,17,0.00,,,0.00,WeatherTracker,2013-05-09 23:01:00,
2013-05-09 17:06:00,71.2,24.2,29.87,ENE,70,5.0,8.0,17,0.00,,,0.00,WeatherTracker,2013-05-09 23:06:00,
2013-05-09 17:11:00,70.8,23.8,29.87,NE,34,0.0,8.0,17,0.00,,,0.00,WeatherTracker,2013-05-09 23:11:00,
2013-05-09 17:16:00,70.9,25.3,29.87,NW,318,2.0,6.0,18,0.00,,,0.00,WeatherTracker,2013-05-09 23:16:00,
2013-05-09 17:21:00,71.2,24.2,29.87,North,360,0.0,6.0,17,0.00,,,0.00,WeatherTracker,2013-05-09 23:21:00,
2013-05-09 17:26:00,71.0,24.0,29.87,NW,317,1.0,6.0,17,0.00,,,0.00,WeatherTracker,2013-05-09 23:26:00,
2013-05-09 17:31:00,71.4,24.3,29.87,NW,319,0.0,5.0,17,0.00,,,0.00,WeatherTracker,2013-05-09 23:31:00,
2013-05-09 17:36:00,71.5,25.8,29.87,NW,319,0.0,4.0,18,0.00,,,0.00,WeatherTracker,2013-05-09 23:36:00,
2013-05-09 17:41:00,71.2,25.5,29.87,NW,319,0.0,3.0,18,0.00,,,0.00,WeatherTracker,2013-05-09 23:41:00,
2013-05-09 17:47:00,71.2,25.5,29.87,WSW,252,0.0,4.0,18,0.00,,,0.00,WeatherTracker,2013-05-09 23:47:00,
2013-05-09 17:52:00,71.2,25.5,29.87,NW,314,0.0,4.0,18,0.00,,,0.00,WeatherTracker,2013-05-09 23:52:00,
2013-05-09 17:57:00,71.0,26.7,29.87,NNW,334,0.0,5.0,19,0.00,,,0.00,WeatherTracker,2013-05-09 23:57:00,
2013-05-09 18:02:00,70.8,25.2,29.87,SE,144,0.0,6.0,18,0.00,,,0.00,WeatherTracker,2013-05-10 00:02:00,
2013-05-09 18:07:00,71.1,25.4,29.87,North,360,2.0,6.0,18,0.00,,,0.00,WeatherTracker,2013-05-10 00:07:00,
2013-05-09 18:12:00,70.7,25.1,29.87,SSE,156,1.0,11.0,18,0.00,,,0.00,WeatherTracker,2013-05-10 00:12:00,
2013-05-09 18:17:00,71.1,25.4,29.87,WSW,252,2.0,11.0,18,0.00,,,0.00,WeatherTracker,2013-05-10 00:17:00,
2013-05-09 18:22:00,71.2,26.8,29.87,West,277,1.0,9.0,19,0.00,,,0.00,WeatherTracker,2013-05-10 00:22:00,
2013-05-09 18:27:00,71.3,26.9,29.87,SE,140,4.0,8.0,19,0.00,,,0.00,WeatherTracker,2013-05-10 00:27:00,
2013-05-09 18:32:00,71.1,26.7,29.87,ESE,121,5.0,9.0,19,0.00,,,0.00,WeatherTracker,2013-05-10 00:32:00,
2013-05-09 18:37:00,71.0,26.7,29.87,ESE,120,0.0,11.0,19,0.00,,,0.00,WeatherTracker,2013-05-10 00:37:00,
2013-05-09 18:42:00,70.7,26.4,29.87,WSW,239,1.0,11.0,19,0.00,,,0.00,WeatherTracker,2013-05-10 00:42:00,
2013-05-09 18:47:00,70.1,27.2,29.87,SSE,157,5.0,7.0,20,0.00,,,0.00,WeatherTracker,2013-05-10 00:47:00,
2013-05-09 18:52:00,69.4,27.8,29.88,WNW,289,3.0,9.0,21,0.00,,,0.00,WeatherTracker,2013-05-10 00:52:00,
2013-05-09 18:57:00,69.2,27.6,29.88,WSW,249,3.0,9.0,21,0.00,,,0.00,WeatherTracker,2013-05-10 00:57:00,
2013-05-09 19:02:00,68.8,28.4,29.88,West,265,3.0,7.0,22,0.00,,,0.00,WeatherTracker,2013-05-10 01:02:00,
2013-05-09 19:07:00,68.6,27.1,29.88,SW,233,6.0,6.0,21,0.00,,,0.00,WeatherTracker,2013-05-10 01:07:00,
2013-05-09 19:12:00,68.3,28.0,29.88,South,177,1.0,8.0,22,0.00,,,0.00,WeatherTracker,2013-05-10 01:12:00,
2013-05-09 19:17:00,68.1,27.8,29.88,WSW,250,3.0,8.0,22,0.00,,,0.00,WeatherTracker,2013-05-10 01:17:00,
2013-05-09 19:22:00,68.0,27.7,29.89,WSW,249,1.0,8.0,22,0.00,,,0.00,WeatherTracker,2013-05-10 01:22:00,
2013-05-09 19:27:00,67.7,27.5,29.89,West,277,0.0,8.0,22,0.00,,,0.00,WeatherTracker,2013-05-10 01:27:00,
2013-05-09 19:32:00,67.7,28.6,29.89,SSW,210,1.0,7.0,23,0.00,,,0.00,WeatherTracker,2013-05-10 01:32:00,
2013-05-09 19:37:00,67.5,29.4,29.89,WSW,255,1.0,11.0,24,0.00,,,0.00,WeatherTracker,2013-05-10 01:37:00,
2013-05-09 19:42:00,67.3,29.3,29.90,WSW,249,1.0,11.0,24,0.00,,,0.00,WeatherTracker,2013-05-10 01:42:00,
2013-05-09 19:48:00,67.1,29.1,29.90,WSW,248,2.0,7.0,24,0.00,,,0.00,WeatherTracker,2013-05-10 01:48:00,
2013-05-09 19:53:00,66.9,29.9,29.90,SW,214,2.0,7.0,25,0.00,,,0.00,WeatherTracker,2013-05-10 01:53:00,
2013-05-09 19:58:00,66.7,29.8,29.90,SW,235,1.0,5.0,25,0.00,,,0.00,WeatherTracker,2013-05-10 01:58:00,
2013-05-09 20:03:00,66.6,29.7,29.91,SW,236,1.0,5.0,25,0.00,,,0.00,WeatherTracker,2013-05-10 02:03:00,
2013-05-09 20:08:00,66.3,29.4,29.91,SW,228,1.0,8.0,25,0.00,,,0.00,WeatherTracker,2013-05-10 02:08:00,
2013-05-09 20:13:00,66.3,29.4,29.92,West,261,3.0,8.0,25,0.00,,,0.00,WeatherTracker,2013-05-10 02:13:00,
2013-05-09 20:18:00,66.2,29.3,29.92,NW,311,0.0,8.0,25,0.00,,,0.00,WeatherTracker,2013-05-10 02:18:00,
2013-05-09 20:23:00,66.2,29.3,29.92,SSW,209,7.0,8.0,25,0.00,,,0.00,WeatherTracker,2013-05-10 02:23:00,
2013-05-09 20:28:00,66.0,30.1,29.92,East,86,1.0,10.0,26,0.00,,,0.00,WeatherTracker,2013-05-10 02:28:00,
2013-05-09 20:33:00,65.7,29.9,29.93,WSW,252,1.0,10.0,26,0.00,,,0.00,WeatherTracker,2013-05-10 02:33:00,
2013-05-09 20:38:00,65.4,30.5,29.93,West,268,0.0,7.0,27,0.00,,,0.00,WeatherTracker,2013-05-10 02:38:00,
2013-05-09 20:43:00,65.2,30.4,29.93,SSW,199,5.0,8.0,27,0.00,,,0.00,WeatherTracker,2013-05-10 02:43:00,
2013-05-09 20:48:00,65.1,30.3,29.93,WSW,249,4.0,8.0,27,0.00,,,0.00,WeatherTracker,2013-05-10 02:48:00,
2013-05-09 20:53:00,65.0,30.2,29.93,SSW,209,2.0,7.0,27,0.00,,,0.00,WeatherTracker,2013-05-10 02:53:00,
2013-05-09 20:58:00,65.0,30.2,29.93,SW,232,1.0,7.0,27,0.00,,,0.00,WeatherTracker,2013-05-10 02:58:00,
2013-05-09 21:03:00,64.8,30.0,29.94,WSW,252,0.0,6.0,27,0.00,,,0.00,WeatherTracker,2013-05-10 03:03:00,
2013-05-09 21:08:00,64.7,29.9,29.94,WSW,243,3.0,8.0,27,0.00,,,0.00,WeatherTracker,2013-05-10 03:08:00,
2013-05-09 21:13:00,64.5,29.8,29.94,WSW,238,1.0,8.0,27,0.00,,,0.00,WeatherTracker,2013-05-10 03:13:00,
2013-05-09 21:18:00,64.3,29.6,29.95,West,274,3.0,9.0,27,0.00,,,0.00,WeatherTracker,2013-05-10 03:18:00,
2013-05-09 21:23:00,64.3,29.6,29.95,WSW,257,3.0,9.0,27,0.00,,,0.00,WeatherTracker,2013-05-10 03:23:00,
2013-05-09 21:28:00,64.0,30.2,29.95,WSW,245,2.0,10.0,28,0.00,,,0.00,WeatherTracker,2013-05-10 03:28:00,
2013-05-09 21:33:00,63.8,30.1,29.96,West,269,4.0,10.0,28,0.00,,,0.00,WeatherTracker,2013-05-10 03:33:00,
2013-05-09 21:38:00,63.7,30.8,29.96,NNW,347,3.0,9.0,29,0.00,,,0.00,WeatherTracker,2013-05-10 03:38:00,
2013-05-09 21:43:00,63.5,30.7,29.97,SW,236,2.0,9.0,29,0.00,,,0.00,WeatherTracker,2013-05-10 03:43:00,
2013-05-09 21:49:00,63.1,31.2,29.97,WNW,284,2.0,11.0,30,0.00,,,0.00,WeatherTracker,2013-05-10 03:49:00,
2013-05-09 21:54:00,62.9,31.0,29.97,SW,232,4.0,13.0,30,0.00,,,0.00,WeatherTracker,2013-05-10 03:54:00,
2013-05-09 21:59:00,62.7,31.6,29.97,West,269,5.0,13.0,31,0.00,,,0.00,WeatherTracker,2013-05-10 03:59:00,
2013-05-09 22:01:00,62.7,31.6,29.97,North,355,3.0,13.0,31,0.00,,,0.00,WeatherTracker,2013-05-10 04:01:00,
2013-05-09 22:02:00,62.7,31.6,29.97,North,349,2.0,8.0,31,0.00,,,0.00,WeatherTracker,2013-05-10 04:02:00,
2013-05-09 22:07:00,62.8,31.7,29.97,WSW,246,1.0,8.0,31,0.00,,,0.00,WeatherTracker,2013-05-10 04:07:00,
2013-05-09 22:12:00,62.9,31.0,29.98,East,94,2.0,5.0,30,0.00,,,0.00,WeatherTracker,2013-05-10 04:12:00,
2013-05-09 22:17:00,63.1,31.2,29.98,NW,312,1.0,5.0,30,0.00,,,0.00,WeatherTracker,2013-05-10 04:17:00,
2013-05-09 22:22:00,63.1,31.2,29.98,WSW,254,2.0,5.0,30,0.00,,,0.00,WeatherTracker,2013-05-10 04:22:00,
2013-05-09 22:27:00,63.2,31.3,29.98,NW,325,1.0,5.0,30,0.00,,,0.00,WeatherTracker,2013-05-10 04:27:00,
2013-05-09 22:32:00,63.3,31.3,29.99,NW,325,0.0,4.0,30,0.00,,,0.00,WeatherTracker,2013-05-10 04:32:00,
2013-05-09 22:37:00,63.5,30.7,29.99,NW,325,0.0,1.0,29,0.00,,,0.00,WeatherTracker,2013-05-10 04:37:00,
2013-05-09 22:42:00,63.6,31.6,30.00,SE,144,2.0,4.0,30,0.00,,,0.00,WeatherTracker,2013-05-10 04:42:00,
2013-05-09 22:47:00,63.7,31.7,30.00,SSE,159,3.0,7.0,30,0.00,,,0.00,WeatherTracker,2013-05-10 04:47:00,
2013-05-09 22:52:00,63.6,31.6,30.01,SE,138,5.0,8.0,30,0.00,,,0.00,WeatherTracker,2013-05-10 04:52:00,
2013-05-09 22:57:00,63.6,31.6,30.01,SSE,149,2.0,8.0,30,0.00,,,0.00,WeatherTracker,2013-05-10 04:57:00,
2013-05-09 23:02:00,63.5,30.7,30.02,SSE,162,3.0,7.0,29,0.00,,,0.00,WeatherTracker,2013-05-10 05:02:00,
2013-05-09 23:07:00,63.7,30.8,30.02,ESE,103,2.0,5.0,29,0.00,,,0.00,WeatherTracker,2013-05-10 05:07:00,
2013-05-09 23:13:00,64.1,31.2,30.03,NNW,327,3.0,8.0,29,0.00,,,0.00,WeatherTracker,2013-05-10 05:13:00,
2013-05-09 23:18:00,63.2,32.1,30.03,NNW,348,1.0,8.0,31,0.00,,,0.00,WeatherTracker,2013-05-10 05:18:00,
2013-05-09 23:23:00,62.4,32.9,30.04,East,90,0.0,7.0,33,0.00,,,0.00,WeatherTracker,2013-05-10 05:23:00,
2013-05-09 23:28:00,61.7,34.5,30.04,NNW,334,5.0,7.0,36,0.00,,,0.00,WeatherTracker,2013-05-10 05:28:00,
2013-05-09 23:33:00,60.7,36.9,30.04,NNW,346,7.0,13.0,41,0.00,,,0.00,WeatherTracker,2013-05-10 05:33:00,
2013-05-09 23:38:00,60.0,36.2,30.04,North,5,6.0,13.0,41,0.00,,,0.00,WeatherTracker,2013-05-10 05:38:00,
2013-05-09 23:43:00,59.9,39.1,30.04,NNE,17,5.0,11.0,46,0.00,,,0.00,WeatherTracker,2013-05-10 05:43:00,
2013-05-09 23:48:00,59.6,38.2,30.04,NNE,13,7.0,10.0,45,0.00,,,0.00,WeatherTracker,2013-05-10 05:48:00,
2013-05-09 23:53:00,59.4,38.1,30.04,NNW,346,3.0,10.0,45,0.00,,,0.00,WeatherTracker,2013-05-10 05:53:00,
2013-05-09 23:58:00,59.2,38.4,30.04,NNE,20,5.0,10.0,46,0.00,,,0.00,WeatherTracker,2013-05-10 05:58:00,